Change the Weather History Date:

Monday, April 1, 2013

  Actual Average (KHOU) Record (KHOU)
Temperature  
Mean Temperature 68 °F 66 °F  
Max Temperature 79 °F 77 °F 89 °F (1939)
Min Temperature 58 °F 56 °F 39 °F (1987)
Degree Days  
Heating Degree Days 0 2  
Month to date heating degree days 2  
Since 1 July heating degree days 1331  
Cooling Degree Days 4 4  
Month to date cooling degree days 4  
Year to date cooling degree days 113  
Growing Degree Days 18 (Base 50)    
Moisture  
Dew Point 62 °F    
Average Humidity 85    
Maximum Humidity 100    
Minimum Humidity 57    
Precipitation  
Precipitation 0.00 in 0.10 in 2.26 in (1945)
Month to date precipitation 0.10  
Year to date precipitation 10.09  
Sea Level Pressure  
Sea Level Pressure 30.01 in    
Wind  
Wind Speed - (North)    
Max Wind Speed -    
Max Gust Speed -    
Visibility 7 miles    
Events      
T = Trace of Precipitation, MM = Missing Value Source: NWS Daily Summary

Daily Weather History Graph

Daily Weather History Graph

Search for Another Location

Airport or City:

Trip Planner

Search our weather history database for the weather conditions in past years. The results will help you decide how hot, cold, wet, or windy it might be!

Date:

Astronomy

Apr. 01, 2013 Rise Set
Actual Time 7:11 AM CDT 7:40 PM CDT
Civil Twilight 6:47 AM CDT 8:04 PM CDT
Nautical Twilight 6:19 AM CDT 8:32 PM CDT
Astronomical Twilight 5:50 AM CDT 9:01 PM CDT
Moon 12:30 AM CDT (4/1) 11:18 AM CDT (4/1)
Length of Visible Light 13h 17m
Length of Day
12h 29m
Waning Gibbous, 67% of the Moon is Illuminated
Apr 1
Waning Gibbous
Apr 2
Last Quarter
Apr 10
New
Apr 18
First Quarter
Apr 25
Full

Hourly Weather History & Observations

Time (CDT) Temp. Dew Point Humidity Pressure Visibility Wind Dir Wind Speed Gust Speed Precip Events Conditions
12:15 AM 60.4 °F 59.7 °F 97% 29.96 in 10.0 mi North - - N/A   Clear
12:35 AM 60.1 °F 59.7 °F 99% 29.96 in 10.0 mi North - - N/A   Clear
12:55 AM 59.7 °F 59.4 °F 99% 29.95 in 5.0 mi North - - N/A   Clear
1:15 AM 59.2 °F 59.0 °F 99% 29.95 in 7.0 mi North - - N/A   Clear
1:35 AM 58.6 °F 58.5 °F 99% 29.95 in 7.0 mi North - - N/A   Clear
1:55 AM 59.4 °F 59.2 °F 99% 29.96 in 7.0 mi North - - N/A   Clear
2:15 AM 59.0 °F 58.8 °F 99% 29.96 in 7.0 mi North - - N/A   Clear
2:35 AM 59.9 °F 59.7 °F 99% 29.96 in 5.0 mi North - - N/A   Clear
3:15 AM 59.5 °F 59.2 °F 99% 29.96 in 4.0 mi North - - N/A   Scattered Clouds
3:35 AM 59.9 °F 59.7 °F 99% 29.97 in 7.0 mi North - - N/A   Mostly Cloudy
4:15 AM 61.2 °F 61.0 °F 99% 29.98 in 7.0 mi North - - N/A   Overcast
4:35 AM 61.7 °F 61.3 °F 99% 29.98 in 7.0 mi North - - N/A   Overcast
4:55 AM 62.1 °F 61.7 °F 99% 29.99 in 7.0 mi North - - N/A   Overcast
5:15 AM 62.2 °F 61.7 °F 98% 30.00 in 5.0 mi North - - N/A   Overcast
5:35 AM 62.6 °F 61.9 °F 97% 30.01 in 3.0 mi North - - N/A   Overcast
5:55 AM 62.6 °F 62.2 °F 99% 30.02 in 2.0 mi North - - N/A   Overcast
6:15 AM 63.0 °F 62.8 °F 99% 30.02 in 1.2 mi North - - N/A   Overcast
6:35 AM 63.1 °F 63.0 °F 99% 30.03 in 1.2 mi North - - N/A   Overcast
6:55 AM 63.1 °F 63.0 °F 99% 30.03 in 2.0 mi North - - N/A   Overcast
7:15 AM 63.1 °F 63.0 °F 99% 30.04 in 1.8 mi North - - N/A   Overcast
7:35 AM 63.1 °F 63.1 °F 100% 30.04 in 1.8 mi North - - N/A   Overcast
8:15 AM 63.7 °F 63.5 °F 99% 30.06 in 1.8 mi North - - N/A   Overcast
8:35 AM 63.9 °F 63.7 °F 99% 30.07 in 1.8 mi North - - N/A   Overcast
8:55 AM 64.4 °F 63.9 °F 98% 30.07 in 2.0 mi North - - N/A   Overcast
9:15 AM 64.6 °F 64.2 °F 99% 30.08 in 2.0 mi North - - N/A   Overcast
9:35 AM 65.3 °F 64.4 °F 97% 30.08 in 2.5 mi North - - N/A   Overcast
9:55 AM 65.3 °F 64.4 °F 97% 30.08 in 3.0 mi North - - N/A   Overcast
10:15 AM 66.4 °F 64.9 °F 95% 30.08 in 3.0 mi North - - N/A   Overcast
10:35 AM 68.0 °F 65.3 °F 91% 30.08 in 4.0 mi North - - N/A   Overcast
10:55 AM 68.9 °F 65.7 °F 89% 30.08 in 5.0 mi North - - N/A   Overcast
11:15 AM 68.9 °F 65.7 °F 89% 30.09 in 5.0 mi North - - N/A   Overcast
11:35 AM 69.6 °F 65.7 °F 87% 30.08 in 5.0 mi North - - N/A   Overcast
11:55 AM 70.2 °F 64.4 °F 82% 30.08 in 7.0 mi North - - N/A   Overcast
12:15 PM 71.4 °F 64.4 °F 78% 30.08 in 7.0 mi North - - N/A   Overcast
12:35 PM 71.8 °F 63.7 °F 76% 30.07 in 7.0 mi North - - N/A   Overcast
12:55 PM 73.2 °F 64.4 °F 74% 30.06 in 10.0 mi North - - N/A   Mostly Cloudy
1:15 PM 73.9 °F 63.9 °F 71% 30.06 in 10.0 mi North - - N/A   Overcast
1:35 PM 75.7 °F 63.3 °F 65% 30.05 in 7.0 mi North - - N/A   Overcast
2:15 PM 77.4 °F 64.0 °F 63% 30.03 in 10.0 mi North - - N/A   Mostly Cloudy
2:35 PM 76.6 °F 63.3 °F 63% 30.02 in 10.0 mi North - - N/A   Overcast
2:55 PM 77.4 °F 63.1 °F 61% 30.01 in 10.0 mi North - - N/A   Mostly Cloudy
3:15 PM 79.0 °F 63.1 °F 58% 30.00 in 10.0 mi North - - N/A   Mostly Cloudy
3:35 PM 77.2 °F 63.0 °F 61% 30.00 in 5.0 mi North - - N/A   Haze
3:55 PM 79.5 °F 63.5 °F 58% 29.99 in 10.0 mi North - - N/A   Scattered Clouds
4:15 PM 77.9 °F 61.7 °F 57% 29.99 in 10.0 mi North - - N/A   Scattered Clouds
4:35 PM 79.3 °F 62.8 °F 57% 29.99 in 10.0 mi North - - N/A   Mostly Cloudy
4:55 PM 78.1 °F 62.1 °F 58% 29.98 in 10.0 mi North - - N/A   Mostly Cloudy
5:15 PM 77.5 °F 62.8 °F 60% 29.98 in 10.0 mi North - - N/A   Mostly Cloudy
5:35 PM 76.1 °F 61.9 °F 61% 29.98 in 10.0 mi North - - N/A   Scattered Clouds
5:55 PM 77.4 °F 61.5 °F 58% 29.97 in 10.0 mi North - - N/A   Clear
6:15 PM 75.7 °F 63.9 °F 66% 29.97 in 10.0 mi North - - N/A   Clear
6:35 PM 74.8 °F 63.5 °F 68% 29.97 in 10.0 mi North - - N/A   Clear
6:55 PM 73.0 °F 63.3 °F 71% 29.97 in 10.0 mi North - - N/A   Clear
7:15 PM 71.4 °F 62.2 °F 73% 29.98 in 10.0 mi North - - N/A   Clear
7:35 PM 69.8 °F 61.3 °F 74% 29.98 in 10.0 mi North - - N/A   Clear
7:55 PM 68.5 °F 60.8 °F 76% 29.98 in 10.0 mi North - - N/A   Clear
8:15 PM 67.5 °F 61.2 °F 80% 29.98 in 10.0 mi North - - N/A   Clear
8:55 PM 66.2 °F 61.3 °F 84% 29.99 in 10.0 mi North - - N/A   Clear
9:15 PM 65.3 °F 61.5 °F 88% 30.00 in 10.0 mi North - - N/A   Clear
9:35 PM 64.6 °F 62.2 °F 92% 30.01 in 10.0 mi North - - N/A   Clear
9:55 PM 64.4 °F 62.6 °F 94% 30.02 in 10.0 mi North - - N/A   Clear
10:15 PM 64.0 °F 62.6 °F 95% 30.02 in 10.0 mi North - - N/A   Clear
10:35 PM 63.7 °F 62.1 °F 94% 30.02 in 10.0 mi North - - N/A   Clear
10:55 PM 63.5 °F 62.2 °F 96% 30.02 in 10.0 mi North - - N/A   Clear
11:15 PM 63.1 °F 62.1 °F 96% 30.02 in 7.0 mi North - - N/A   Clear
11:35 PM 62.6 °F 61.7 °F 97% 30.02 in 7.0 mi North - - N/A   Clear
11:55 PM 62.1 °F 61.5 °F 98% 30.01 in 7.0 mi North - - N/A   Clear